Location: Arcadia
(34.1397°N, 118.0353°W)
Time: 22:39:14
(UTC+00:00)

CENTAUR R/B - Pass Details

Date: 08 September 2024
Orbit: 660 x 1523 km, 63.4° (Epoch: 13 October)

Event Time Altitude Azimuth Distance (km) Brightness Sun altitude
Exits shadow 12:51:44 11° 255° (WSW) 2,322 3.8 -8.8°
Maximum altitude 12:56:17 29° 314° (NW) 1,599 3.4 -7.9°
Drops below altitude 10° 13:01:55 10° 13° (NNE) 2,854 5.3 -6.8°
Sets 13:05:15 0° 24° (NNE) 3,972 6.2 -6.1°
